Location: La Sioule Rivi�re
(46.3664°N, 3.3197°E)
Time: 12:37:17
(UTC+00:00)

Cosmos 1553 Rocket - Pass Details

Date: 29 October 2020
Orbit: 940 x 1009 km, 82.9° (Epoch: 23 November)

Event Time Altitude Azimuth Distance (km) Brightness Sun altitude
Rises 17:40:51 0° 177° (S) 3,711 7.1 -11.7°
Reaches altitude 10° 17:43:24 10° 174° (S) 2,758 6.4 -12.1°
Maximum altitude 17:49:40 66° 94° (E) 1,073 4.0 -13.2°
Drops below altitude 10° 17:55:52 10° 14° (NNE) 2,732 6.2 -14.3°
Sets 17:58:22 0° 12° (NNE) 3,674 6.9 -14.7°
